Weather History for KMWH - July, 2012

Change the Weather History Date:

Thursday, July 19, 2012

  Actual Average Record
Temperature  
Mean Temperature 81 °F 74 °F  
Max Temperature 96 °F 90 °F 100 °F (2003)
Min Temperature 65 °F 57 °F 50 °F (1985)
Degree Days  
Heating Degree Days 0 0  
Month to date heating degree days 6 6  
Since 1 June heating degree days 92 61  
Since 1 July heating degree days 6 6  
Cooling Degree Days 16 9  
Month to date cooling degree days 209 134  
Year to date cooling degree days 301 244  
Since 1 June cooling degree days 274 219  
Growing Degree Days 28 (Base 50)    
Moisture  
Dew Point 54 °F    
Average Humidity 51    
Maximum Humidity 78    
Minimum Humidity 23    
Precipitation  
Precipitation 0.01 in 0.01 in 0.05 in (2004)
Month to date precipitation 0.30 0.25  
Year to date precipitation 5.20 5.02  
Sea Level Pressure  
Sea Level Pressure 29.88 in    
Wind  
Wind Speed 5 mph (SW)    
Max Wind Speed 24 mph    
Max Gust Speed 29 mph    
Visibility 10 miles    
Events Thunderstorm    
T = Trace of Precipitation, MM = Missing Value Source: NWS Daily Summary

Daily Weather History Graph

Daily Weather History Graph

Search for Another Location

Airport or City:

Trip Planner

Search our weather history database for the weather conditions in past years. The results will help you decide how hot, cold, wet, or windy it might be!

Date:

Astronomy

Jul. 19, 2012 Rise Set
Actual Time 5:21 AM PDT 8:45 PM PDT
Civil Twilight 4:43 AM PDT 9:22 PM PDT
Nautical Twilight 3:54 AM PDT 10:12 PM PDT
Astronomical Twilight 2:49 AM PDT 11:15 PM PDT
Moon 6:07 AM PDT (7/19) 8:45 PM PDT (7/19)
Length of Visible Light 16h 38m
Length of Day
15h 23m
New Moon, 0% of the Moon is Illuminated
Jul 19
New Moon
Jul 26
First Quarter
Aug 1
Full
Aug 9
Last Quarter
Aug 17
New

Hourly Weather History & Observations

Time (PDT) Temp. Heat Index Dew Point Humidity Pressure Visibility Wind Dir Wind Speed Gust Speed Precip Events Conditions
12:52 AM 72.0 °F - 48.0 °F 43% 29.86 in 10.0 mi NNW 9.2 mph - N/A   Clear
1:52 AM 70.0 °F - 48.0 °F 46% 29.86 in 10.0 mi North 5.8 mph - N/A   Clear
2:52 AM 70.0 °F - 48.0 °F 46% 29.87 in 10.0 mi Calm Calm - N/A   Clear
3:52 AM 71.1 °F - 50.0 °F 47% 29.89 in 10.0 mi Calm Calm - N/A   Clear
4:52 AM 66.9 °F - 54.0 °F 63% 29.90 in 10.0 mi Calm Calm - N/A   Clear
5:52 AM 64.9 °F - 57.9 °F 78% 29.91 in 10.0 mi Calm Calm - N/A   Clear
6:52 AM 66.0 °F - 57.9 °F 75% 29.93 in 10.0 mi SSE 4.6 mph - N/A   Clear
7:52 AM 73.0 °F - 57.0 °F 57% 29.95 in 10.0 mi SSW 4.6 mph - N/A   Clear
8:52 AM 78.1 °F - 53.1 °F 42% 29.94 in 10.0 mi North 4.6 mph - N/A   Clear
9:52 AM 82.0 °F 81.4 °F 55.0 °F 39% 29.94 in 10.0 mi Variable 3.5 mph - N/A   Clear
10:52 AM 84.9 °F - 48.0 °F 28% 29.93 in 10.0 mi Variable 3.5 mph - N/A   Clear
11:52 AM 90.0 °F - 46.0 °F 22% 29.91 in 10.0 mi Calm Calm - N/A   Clear
12:52 PM 91.0 °F - 48.9 °F 23% 29.90 in 10.0 mi Calm Calm - N/A   Clear
1:52 PM 91.9 °F - 48.0 °F 22% 29.89 in 10.0 mi SSE 5.8 mph - N/A   Clear
2:52 PM 91.9 °F - 52.0 °F 26% 29.88 in 10.0 mi South 8.1 mph - N/A   Clear
3:52 PM 93.9 °F 91.4 °F 53.1 °F 25% 29.84 in 10.0 mi Variable 3.5 mph - N/A   Clear
4:52 PM 93.9 °F - 52.0 °F 24% 29.82 in 10.0 mi Variable 5.8 mph - N/A   Clear
5:52 PM 91.9 °F 89.5 °F 53.1 °F 27% 29.82 in 10.0 mi West 11.5 mph - N/A   Clear
6:52 PM 88.0 °F 87.1 °F 59.0 °F 37% 29.83 in 10.0 mi West 11.5 mph - N/A   Clear
7:52 PM 87.1 °F 86.5 °F 59.0 °F 39% 29.84 in 10.0 mi SW 12.7 mph - N/A Thunderstorm Partly Cloudy
8:18 PM 84.2 °F 84.4 °F 60.8 °F 45% 29.85 in 10.0 mi WNW 9.2 mph - N/A   Partly Cloudy
8:52 PM 82.9 °F 82.0 °F 55.0 °F 38% 29.82 in 10.0 mi Calm Calm - N/A   Clear
9:52 PM 82.0 °F 81.7 °F 57.0 °F 42% 29.84 in 10.0 mi East 3.5 mph - N/A   Scattered Clouds
10:52 PM 75.0 °F - 60.1 °F 60% 29.84 in 10.0 mi South 6.9 mph - N/A   Clear
11:52 PM 77.0 °F - 61.0 °F 58% 29.82 in 10.0 mi Calm Calm - N/A   Clear